Time,TemperatureF,DewpointF,PressureIn,WindDirection,WindDirectionDegrees,WindSpeedMPH,WindSpeedGustMPH,Humidity,HourlyPrecipIn,Conditions,Clouds,dailyrainin,SoftwareType,DateUTC
2013-02-23 00:01:00,22.0,22.0,-100.00,West,270,7.0,12.0,99,0.00,,,-99.99,,2013-02-23 06:01:00,
2013-02-23 00:11:00,22.0,22.0,-100.00,West,275,7.0,11.0,99,0.00,,,-99.99,,2013-02-23 06:11:00,
2013-02-23 00:22:00,22.0,22.0,-100.00,West,275,7.0,11.0,99,0.00,,,-99.99,,2013-02-23 06:22:00,
2013-02-23 00:31:00,22.0,22.0,-100.00,West,270,7.0,12.0,99,0.00,,,-99.99,,2013-02-23 06:31:00,
2013-02-23 00:41:00,22.0,22.0,-100.00,WSW,250,7.0,12.0,99,0.00,,,-99.99,,2013-02-23 06:41:00,
2013-02-23 00:51:00,22.0,22.0,-100.00,West,260,9.0,12.0,99,0.00,,,-99.99,,2013-02-23 06:51:00,
2013-02-23 01:01:00,22.0,22.0,-100.00,WSW,255,6.0,12.0,99,0.00,,,-99.99,,2013-02-23 07:01:00,
2013-02-23 01:11:00,22.0,22.0,-100.00,WSW,255,7.0,11.0,99,0.00,,,-99.99,,2013-02-23 07:11:00,
2013-02-23 01:21:00,22.0,22.0,-100.00,WSW,255,7.0,11.0,99,0.00,,,-99.99,,2013-02-23 07:21:00,
2013-02-23 01:32:00,22.0,22.0,-100.00,WSW,255,7.0,11.0,99,0.00,,,-99.99,,2013-02-23 07:32:00,
2013-02-23 01:41:00,22.0,22.0,-100.00,WSW,255,7.0,11.0,99,0.00,,,-99.99,,2013-02-23 07:41:00,
2013-02-23 01:51:00,22.0,21.0,-100.00,West,265,12.0,-999.0,96,0.00,,,-99.99,,2013-02-23 07:51:00,
2013-02-23 02:01:00,22.0,21.0,-100.00,West,275,8.0,16.0,96,0.00,,,-99.99,,2013-02-23 08:01:00,
2013-02-23 02:11:00,22.0,21.0,-100.00,West,270,11.0,14.0,94,0.00,,,-99.99,,2013-02-23 08:11:00,
2013-02-23 02:21:00,22.0,21.0,-100.00,West,270,11.0,14.0,94,0.00,,,-99.99,,2013-02-23 08:21:00,
2013-02-23 02:31:00,22.0,22.0,-100.00,West,280,10.0,18.0,98,0.00,,,-99.99,,2013-02-23 08:31:00,
2013-02-23 02:41:00,22.0,22.0,-100.00,West,280,10.0,18.0,98,0.00,,,-99.99,,2013-02-23 08:41:00,
2013-02-23 02:52:00,22.0,21.0,-100.00,West,280,14.0,20.0,96,0.00,,,-99.99,,2013-02-23 08:52:00,
2013-02-23 03:01:00,22.0,21.0,-100.00,West,265,14.0,20.0,95,0.00,,,-99.99,,2013-02-23 09:01:00,
2013-02-23 03:11:00,22.0,21.0,-100.00,West,265,14.0,20.0,95,0.00,,,-99.99,,2013-02-23 09:11:00,
2013-02-23 03:21:00,22.0,21.0,-100.00,West,265,12.0,16.0,98,0.00,,,-99.99,,2013-02-23 09:21:00,
2013-02-23 03:31:00,22.0,21.0,-100.00,West,275,10.0,20.0,97,0.00,,,-99.99,,2013-02-23 09:31:00,
2013-02-23 03:41:00,21.0,21.0,-100.00,West,280,11.0,17.0,98,0.00,,,-99.99,,2013-02-23 09:41:00,
2013-02-23 03:52:00,21.0,21.0,-100.00,West,265,9.0,16.0,97,0.00,,,-99.99,,2013-02-23 09:52:00,
2013-02-23 04:01:00,21.0,21.0,-100.00,West,265,9.0,16.0,97,0.00,,,-99.99,,2013-02-23 10:01:00,
2013-02-23 04:11:00,21.0,21.0,-100.00,West,260,7.0,11.0,99,0.00,,,-99.99,,2013-02-23 10:11:00,
2013-02-23 04:21:00,21.0,21.0,-100.00,West,260,7.0,11.0,99,0.00,,,-99.99,,2013-02-23 10:21:00,
2013-02-23 04:31:00,21.0,21.0,-100.00,WSW,250,6.0,11.0,99,0.00,,,-99.99,,2013-02-23 10:31:00,
2013-02-23 04:41:00,21.0,21.0,-100.00,WSW,250,6.0,11.0,99,0.00,,,-99.99,,2013-02-23 10:41:00,
2013-02-23 04:51:00,21.0,21.0,-100.00,WSW,250,6.0,8.0,99,0.00,,,-99.99,,2013-02-23 10:51:00,
2013-02-23 05:02:00,21.0,21.0,-100.00,WSW,250,7.0,10.0,99,0.00,,,-99.99,,2013-02-23 11:02:00,
2013-02-23 05:11:00,21.0,21.0,-100.00,West,260,9.0,9.0,99,0.00,,,-99.99,,2013-02-23 11:11:00,
2013-02-23 05:21:00,21.0,21.0,-100.00,West,260,9.0,9.0,99,0.00,,,-99.99,,2013-02-23 11:21:00,
2013-02-23 05:32:00,21.0,21.0,-100.00,WSW,255,9.0,13.0,99,0.00,,,-99.99,,2013-02-23 11:32:00,
2013-02-23 05:41:00,21.0,21.0,-100.00,West,260,8.0,12.0,99,0.00,,,-99.99,,2013-02-23 11:41:00,
2013-02-23 05:52:00,21.0,21.0,-100.00,WSW,255,7.0,13.0,99,0.00,,,-99.99,,2013-02-23 11:52:00,
2013-02-23 06:02:00,21.0,21.0,-100.00,WSW,255,7.0,11.0,99,0.00,,,-99.99,,2013-02-23 12:02:00,
2013-02-23 06:11:00,21.0,21.0,-100.00,SW,235,10.0,12.0,99,0.00,,,-99.99,,2013-02-23 12:11:00,
2013-02-23 06:21:00,21.0,21.0,-100.00,SW,235,10.0,12.0,99,0.00,,,-99.99,,2013-02-23 12:21:00,
2013-02-23 06:32:00,20.0,20.0,-100.00,WSW,245,9.0,14.0,99,0.00,,,-99.99,,2013-02-23 12:32:00,
2013-02-23 06:42:00,20.0,20.0,-100.00,SW,235,11.0,14.0,99,0.00,,,-99.99,,2013-02-23 12:42:00,
2013-02-23 06:52:00,19.0,19.0,-100.00,SW,235,9.0,15.0,99,0.00,,,-99.99,,2013-02-23 12:52:00,
2013-02-23 07:01:00,19.0,19.0,-100.00,SW,235,9.0,12.0,99,0.00,,,-99.99,,2013-02-23 13:01:00,
2013-02-23 07:11:00,19.0,19.0,-100.00,WSW,245,7.0,12.0,99,0.00,,,-99.99,,2013-02-23 13:11:00,
2013-02-23 07:22:00,18.0,18.0,-100.00,WSW,250,7.0,10.0,99,0.00,,,-99.99,,2013-02-23 13:22:00,
2013-02-23 07:32:00,18.0,18.0,-100.00,WSW,255,4.0,8.0,99,0.00,,,-99.99,,2013-02-23 13:32:00,
2013-02-23 07:42:00,18.0,18.0,-100.00,WSW,250,7.0,11.0,99,0.00,,,-99.99,,2013-02-23 13:42:00,
2013-02-23 07:52:00,18.0,18.0,-100.00,WSW,255,6.0,10.0,99,0.00,,,-99.99,,2013-02-23 13:52:00,
2013-02-23 08:02:00,18.0,18.0,-100.00,WSW,250,5.0,7.0,99,0.00,,,-99.99,,2013-02-23 14:02:00,
2013-02-23 08:11:00,17.0,17.0,-100.00,West,260,6.0,8.0,99,0.00,,,-99.99,,2013-02-23 14:11:00,
2013-02-23 08:21:00,17.0,17.0,-100.00,West,260,7.0,9.0,99,0.00,,,-99.99,,2013-02-23 14:21:00,
2013-02-23 08:32:00,18.0,18.0,-100.00,WSW,245,6.0,9.0,99,0.00,,,-99.99,,2013-02-23 14:32:00,
2013-02-23 08:42:00,18.0,18.0,-100.00,WSW,240,7.0,11.0,99,0.00,,,-99.99,,2013-02-23 14:42:00,
2013-02-23 08:52:00,18.0,18.0,-100.00,West,260,7.0,11.0,99,0.00,,,-99.99,,2013-02-23 14:52:00,
2013-02-23 09:01:00,18.0,18.0,-100.00,WSW,255,7.0,11.0,99,0.00,,,-99.99,,2013-02-23 15:01:00,
2013-02-23 09:11:00,18.0,18.0,-100.00,WSW,255,7.0,9.0,99,0.00,,,-99.99,,2013-02-23 15:11:00,
2013-02-23 09:21:00,19.0,19.0,-100.00,WSW,250,4.0,7.0,99,0.00,,,-99.99,,2013-02-23 15:21:00,
2013-02-23 09:32:00,19.0,19.0,-100.00,WSW,250,4.0,7.0,99,0.00,,,-99.99,,2013-02-23 15:32:00,
2013-02-23 09:42:00,20.0,20.0,-100.00,WSW,245,6.0,7.0,98,0.00,,,-99.99,,2013-02-23 15:42:00,
2013-02-23 09:51:00,21.0,20.0,-100.00,WSW,240,4.0,7.0,96,0.00,,,-99.99,,2013-02-23 15:51:00,
2013-02-23 10:01:00,21.0,20.0,-100.00,SW,235,6.0,7.0,95,0.00,,,-99.99,,2013-02-23 16:01:00,
2013-02-23 10:11:00,22.0,20.0,-100.00,SW,220,7.0,9.0,92,0.00,,,-99.99,,2013-02-23 16:11:00,
2013-02-23 10:21:00,23.0,20.0,-100.00,SW,225,7.0,10.0,87,0.00,,,-99.99,,2013-02-23 16:21:00,
2013-02-23 10:31:00,23.0,20.0,-100.00,SW,215,4.0,9.0,90,0.00,,,-99.99,,2013-02-23 16:31:00,
2013-02-23 10:42:00,23.0,20.0,-100.00,SW,230,5.0,6.0,87,0.00,,,-99.99,,2013-02-23 16:42:00,
2013-02-23 10:51:00,23.0,19.0,-100.00,SW,225,6.0,9.0,85,0.00,,,-99.99,,2013-02-23 16:51:00,
2013-02-23 11:01:00,24.0,20.0,-100.00,SW,235,6.0,8.0,83,0.00,,,-99.99,,2013-02-23 17:01:00,
2013-02-23 11:11:00,24.0,20.0,-100.00,WSW,250,7.0,9.0,85,0.00,,,-99.99,,2013-02-23 17:11:00,
2013-02-23 11:21:00,24.0,20.0,-100.00,WSW,245,7.0,11.0,83,0.00,,,-99.99,,2013-02-23 17:21:00,
2013-02-23 11:31:00,24.0,20.0,-100.00,WSW,250,7.0,12.0,83,0.00,,,-99.99,,2013-02-23 17:31:00,
2013-02-23 11:42:00,25.0,20.0,-100.00,SW,225,7.0,9.0,82,0.00,,,-99.99,,2013-02-23 17:42:00,
2013-02-23 11:52:00,26.0,21.0,-100.00,SSW,210,8.0,10.0,81,0.00,,,-99.99,,2013-02-23 17:52:00,
2013-02-23 12:01:00,25.0,21.0,-100.00,SW,215,9.0,11.0,84,0.00,,,-99.99,,2013-02-23 18:01:00,
2013-02-23 12:12:00,25.0,21.0,-100.00,WSW,240,6.0,10.0,86,0.00,,,-99.99,,2013-02-23 18:12:00,
2013-02-23 12:21:00,25.0,22.0,-100.00,SW,225,9.0,11.0,85,0.00,,,-99.99,,2013-02-23 18:21:00,
2013-02-23 12:32:00,24.0,21.0,-100.00,WSW,245,11.0,13.0,86,0.00,,,-99.99,,2013-02-23 18:32:00,
2013-02-23 12:42:00,25.0,22.0,-100.00,WSW,255,9.0,15.0,87,0.00,,,-99.99,,2013-02-23 18:42:00,
2013-02-23 12:51:00,25.0,21.0,-100.00,West,275,7.0,14.0,84,0.00,,,-99.99,,2013-02-23 18:51:00,
2013-02-23 13:01:00,26.0,22.0,-100.00,WNW,285,6.0,11.0,84,0.00,,,-99.99,,2013-02-23 19:01:00,
2013-02-23 13:11:00,26.0,22.0,-100.00,WNW,285,7.0,11.0,84,0.00,,,-99.99,,2013-02-23 19:11:00,
2013-02-23 13:21:00,25.0,21.0,-100.00,WNW,300,7.0,12.0,86,0.00,,,-99.99,,2013-02-23 19:21:00,
2013-02-23 13:32:00,26.0,21.0,-100.00,West,275,4.0,9.0,80,0.00,,,-99.99,,2013-02-23 19:32:00,
2013-02-23 13:41:00,26.0,21.0,-100.00,WSW,245,9.0,11.0,81,0.00,,,-99.99,,2013-02-23 19:41:00,
2013-02-23 13:52:00,26.0,21.0,-100.00,West,270,10.0,12.0,81,0.00,,,-99.99,,2013-02-23 19:52:00,
2013-02-23 14:01:00,27.0,22.0,-100.00,West,280,6.0,12.0,80,0.00,,,-99.99,,2013-02-23 20:01:00,
2013-02-23 14:11:00,28.0,22.0,-100.00,West,270,6.0,9.0,78,0.00,,,-99.99,,2013-02-23 20:11:00,
2013-02-23 14:21:00,28.0,21.0,-100.00,West,280,7.0,10.0,76,0.00,,,-99.99,,2013-02-23 20:21:00,
2013-02-23 14:32:00,28.0,22.0,-100.00,West,260,6.0,9.0,77,0.00,,,-99.99,,2013-02-23 20:32:00,
2013-02-23 14:41:00,29.0,24.0,-100.00,SW,230,6.0,10.0,78,0.00,,,-99.99,,2013-02-23 20:41:00,
2013-02-23 14:52:00,29.0,22.0,-100.00,WSW,240,6.0,9.0,74,0.00,,,-99.99,,2013-02-23 20:52:00,
2013-02-23 15:01:00,29.0,22.0,-100.00,West,260,7.0,9.0,75,0.00,,,-99.99,,2013-02-23 21:01:00,
2013-02-23 15:11:00,29.0,22.0,-100.00,SW,220,6.0,9.0,77,0.00,,,-99.99,,2013-02-23 21:11:00,
2013-02-23 15:22:00,28.0,22.0,-100.00,WSW,250,6.0,9.0,77,0.00,,,-99.99,,2013-02-23 21:22:00,
2013-02-23 15:31:00,28.0,22.0,-100.00,WSW,255,7.0,9.0,76,0.00,,,-99.99,,2013-02-23 21:31:00,
2013-02-23 15:41:00,29.0,23.0,-100.00,WSW,240,9.0,11.0,78,0.00,,,-99.99,,2013-02-23 21:41:00,
2013-02-23 15:51:00,29.0,23.0,-100.00,SW,215,7.0,11.0,79,0.00,,,-99.99,,2013-02-23 21:51:00,
2013-02-23 16:01:00,29.0,22.0,-100.00,SW,215,7.0,12.0,76,0.00,,,-99.99,,2013-02-23 22:01:00,
2013-02-23 16:11:00,29.0,23.0,-100.00,SW,235,4.0,10.0,76,0.00,,,-99.99,,2013-02-23 22:11:00,
2013-02-23 16:21:00,29.0,23.0,-100.00,SSW,210,7.0,11.0,76,0.00,,,-99.99,,2013-02-23 22:21:00,
2013-02-23 16:31:00,29.0,22.0,-100.00,SW,230,9.0,10.0,77,0.00,,,-99.99,,2013-02-23 22:31:00,
2013-02-23 16:42:00,29.0,23.0,-100.00,WSW,245,9.0,11.0,78,0.00,,,-99.99,,2013-02-23 22:42:00,
2013-02-23 16:51:00,28.0,22.0,-100.00,SW,235,7.0,10.0,78,0.00,,,-99.99,,2013-02-23 22:51:00,
2013-02-23 17:01:00,28.0,22.0,-100.00,WSW,240,7.0,10.0,78,0.00,,,-99.99,,2013-02-23 23:01:00,
2013-02-23 17:11:00,28.0,23.0,-100.00,WSW,240,6.0,9.0,79,0.00,,,-99.99,,2013-02-23 23:11:00,
2013-02-23 17:21:00,28.0,22.0,-100.00,WSW,240,7.0,9.0,79,0.00,,,-99.99,,2013-02-23 23:21:00,
2013-02-23 17:31:00,28.0,22.0,-100.00,SW,235,6.0,8.0,79,0.00,,,-99.99,,2013-02-23 23:31:00,
2013-02-23 17:42:00,27.0,22.0,-100.00,SW,235,4.0,6.0,80,0.00,,,-99.99,,2013-02-23 23:42:00,
2013-02-23 17:52:00,27.0,22.0,-100.00,WSW,240,4.0,6.0,82,0.00,,,-99.99,,2013-02-23 23:52:00,
2013-02-23 18:01:00,26.0,22.0,-100.00,SW,235,3.0,4.0,82,0.00,,,-99.99,,2013-02-24 00:01:00,
2013-02-23 18:11:00,26.0,22.0,-100.00,SW,220,2.0,4.0,85,0.00,,,-99.99,,2013-02-24 00:11:00,
2013-02-23 18:22:00,24.0,22.0,-100.00,South,180,0.0,2.0,91,0.00,,,-99.99,,2013-02-24 00:22:00,
2013-02-23 18:32:00,22.0,20.0,-100.00,ESE,110,2.0,2.0,92,0.00,,,-99.99,,2013-02-24 00:32:00,
2013-02-23 18:42:00,22.0,21.0,-100.00,ESE,120,2.0,2.0,93,0.00,,,-99.99,,2013-02-24 00:42:00,
2013-02-23 18:52:00,22.0,20.0,-100.00,SE,135,2.0,2.0,94,0.00,,,-99.99,,2013-02-24 00:52:00,
2013-02-23 19:01:00,22.0,21.0,-100.00,SE,140,2.0,2.0,94,0.00,,,-99.99,,2013-02-24 01:01:00,
2013-02-23 19:11:00,22.0,21.0,-100.00,SE,140,2.0,2.0,94,0.00,,,-99.99,,2013-02-24 01:11:00,
2013-02-23 19:22:00,19.0,18.0,-100.00,East,90,1.0,2.0,98,0.00,,,-99.99,,2013-02-24 01:22:00,
2013-02-23 19:31:00,19.0,19.0,-100.00,ESE,110,1.0,1.0,99,0.00,,,-99.99,,2013-02-24 01:31:00,
2013-02-23 19:42:00,19.0,19.0,-100.00,ESE,110,1.0,1.0,99,0.00,,,-99.99,,2013-02-24 01:42:00,
2013-02-23 19:52:00,19.0,19.0,-100.00,ESE,115,2.0,2.0,99,0.00,,,-99.99,,2013-02-24 01:52:00,
2013-02-23 20:01:00,19.0,19.0,-100.00,ESE,115,2.0,2.0,99,0.00,,,-99.99,,2013-02-24 02:01:00,
2013-02-23 20:11:00,18.0,18.0,-100.00,East,100,2.0,2.0,99,0.00,,,-99.99,,2013-02-24 02:11:00,
2013-02-23 20:21:00,17.0,17.0,-100.00,ENE,65,1.0,3.0,99,0.00,,,-99.99,,2013-02-24 02:21:00,
2013-02-23 20:32:00,12.0,12.0,-100.00,ENE,65,0.0,0.0,99,0.00,,,-99.99,,2013-02-24 02:32:00,
2013-02-23 20:42:00,14.0,14.0,-100.00,ENE,65,0.0,0.0,99,0.00,,,-99.99,,2013-02-24 02:42:00,
2013-02-23 20:52:00,15.0,15.0,-100.00,NE,45,2.0,3.0,99,0.00,,,-99.99,,2013-02-24 02:52:00,
2013-02-23 21:01:00,13.0,13.0,-100.00,ENE,70,1.0,3.0,99,0.00,,,-99.99,,2013-02-24 03:01:00,
2013-02-23 21:21:00,14.0,14.0,-100.00,ENE,65,2.0,2.0,99,0.00,,,-99.99,,2013-02-24 03:21:00,
2013-02-23 21:32:00,14.0,14.0,-100.00,NW,305,2.0,4.0,99,0.00,,,-99.99,,2013-02-24 03:32:00,
2013-02-23 21:42:00,14.0,14.0,-100.00,NW,305,2.0,4.0,99,0.00,,,-99.99,,2013-02-24 03:42:00,
2013-02-23 21:52:00,15.0,15.0,-100.00,NNE,20,2.0,3.0,99,0.00,,,-99.99,,2013-02-24 03:52:00,
2013-02-23 22:01:00,15.0,15.0,-100.00,ENE,75,1.0,3.0,99,0.00,,,-99.99,,2013-02-24 04:01:00,
2013-02-23 22:11:00,15.0,15.0,-100.00,East,90,3.0,5.0,99,0.00,,,-99.99,,2013-02-24 04:11:00,
2013-02-23 22:21:00,15.0,15.0,-100.00,East,90,3.0,5.0,99,0.00,,,-99.99,,2013-02-24 04:21:00,
2013-02-23 22:31:00,11.0,11.0,-100.00,South,185,1.0,7.0,99,0.00,,,-99.99,,2013-02-24 04:31:00,
2013-02-23 22:41:00,10.0,10.0,-100.00,WNW,295,2.0,3.0,99,0.00,,,-99.99,,2013-02-24 04:41:00,
2013-02-23 22:51:00,10.0,10.0,-100.00,West,280,1.0,2.0,99,0.00,,,-99.99,,2013-02-24 04:51:00,
2013-02-23 23:01:00,9.0,9.0,-100.00,WNW,295,1.0,2.0,99,0.00,,,-99.99,,2013-02-24 05:01:00,
2013-02-23 23:11:00,10.0,10.0,-100.00,NW,320,1.0,2.0,99,0.00,,,-99.99,,2013-02-24 05:11:00,
2013-02-23 23:22:00,10.0,10.0,-100.00,NW,320,1.0,2.0,99,0.00,,,-99.99,,2013-02-24 05:22:00,
2013-02-23 23:32:00,11.0,11.0,-100.00,NNE,20,0.0,2.0,99,0.00,,,-99.99,,2013-02-24 05:32:00,
2013-02-23 23:42:00,12.0,12.0,-100.00,WNW,295,1.0,2.0,99,0.00,,,-99.99,,2013-02-24 05:42:00,
2013-02-23 23:52:00,7.0,7.0,-100.00,WNW,295,0.0,2.0,99,0.00,,,-99.99,,2013-02-24 05:52:00,